2024/02/18 00:00:00, 0.0, 3.8
2024/02/18 00:10:00, 0.0, 3.8
2024/02/18 00:20:00, 0.0, 4.0
2024/02/18 00:30:00, 0.0, 3.9
2024/02/18 00:40:00, 0.0, 3.7
2024/02/18 00:50:00, 0.0, 3.8
2024/02/18 01:00:00, 0.0, 4.1
2024/02/18 01:10:00, 0.0, 4.8
2024/02/18 01:20:00, 0.0, 5.4
2024/02/18 01:30:00, 0.0, 5.4
2024/02/18 01:40:00, 0.0, 5.5
2024/02/18 01:50:00, 0.0, 5.4
2024/02/18 02:00:00, 0.0, 5.3
2024/02/18 02:10:00, 0.0, 5.1
2024/02/18 02:20:00, 0.0, 5.1
2024/02/18 02:30:00, 0.0, 4.7
2024/02/18 02:40:00, 0.0, 5.2
2024/02/18 02:50:00, 0.0, 5.0
2024/02/18 03:00:00, 0.0, 5.2
2024/02/18 03:10:00, 0.0, 5.0
2024/02/18 03:20:00, 0.0, 4.7
2024/02/18 03:30:00, 0.0, 4.7
2024/02/18 03:40:00, 0.0, 4.5
2024/02/18 03:50:00, 0.0, 4.8
2024/02/18 04:00:00, 0.0, 4.3
2024/02/18 04:10:00, 0.0, 4.5
2024/02/18 04:20:00, 0.0, 4.4
2024/02/18 04:30:00, 0.0, 5.1
2024/02/18 04:40:00, 0.0, 5.4
2024/02/18 04:50:00, 0.0, 5.8
2024/02/18 05:00:00, 0.0, 5.7
2024/02/18 05:10:00, 0.0, 5.4
2024/02/18 05:20:00, 0.0, 5.5
2024/02/18 05:30:00, 0.0, 5.6
2024/02/18 05:40:00, 0.0, 6.2
2024/02/18 05:50:00, 0.0, 5.9
2024/02/18 06:00:00, 0.0, 5.7
2024/02/18 06:10:00, 0.0, 5.1
2024/02/18 06:20:00, 0.0, 5.2
2024/02/18 06:30:00, 0.0, 5.4
2024/02/18 06:40:00, 0.0, 5.2
2024/02/18 06:50:00, 0.0, 4.9
2024/02/18 07:00:00, 0.0, 5.2
2024/02/18 07:10:00, 0.0, 5.8
2024/02/18 07:20:00, 0.0, 6.4
2024/02/18 07:30:00, 0.0, 6.5
2024/02/18 07:40:00, 0.0, 6.7
2024/02/18 07:50:00, 0.0, 7.3
2024/02/18 08:00:00, 0.0, 9.6
2024/02/18 08:10:00, 0.0,10.6
2024/02/18 08:20:00, 0.0,11.2
2024/02/18 08:30:00, 0.0,12.1
2024/02/18 08:40:00, 0.0,12.0
2024/02/18 08:50:00, 0.0,12.3
2024/02/18 09:00:00, 0.0,12.0
2024/02/18 09:10:00, 0.0,13.3
2024/02/18 09:20:00, 0.0,13.7
2024/02/18 09:30:00, 0.0,13.9
2024/02/18 09:40:00, 0.0,15.7
2024/02/18 09:50:00,---,15.6
2024/02/18 10:00:00,---,15.9
2024/02/18 10:10:00, 0.0,16.1
2024/02/18 10:20:00, 0.0,17.9
2024/02/18 10:30:00, 0.0,17.0
2024/02/18 10:40:00,---,18.0
2024/02/18 10:50:00, 0.0,17.3
2024/02/18 11:00:00, 0.0,17.5
2024/02/18 11:10:00, 0.0,17.5
2024/02/18 11:20:00, 0.0,18.1
2024/02/18 11:30:00,---,18.7
2024/02/18 11:40:00,---,19.2
2024/02/18 11:50:00,---,19.9
2024/02/18 12:00:00, 0.0,20.9
2024/02/18 12:10:00, 0.0,18.3
2024/02/18 12:20:00, 0.0,20.5
2024/02/18 12:30:00, 0.0,22.0
2024/02/18 12:40:00, 0.0,20.7
2024/02/18 12:50:00,---,20.4
2024/02/18 13:00:00,---,21.3
2024/02/18 13:10:00, 0.0,20.9
2024/02/18 13:20:00, 0.0,20.9
2024/02/18 13:30:00, 0.0,20.2
2024/02/18 13:40:00, 0.0,19.1
2024/02/18 13:50:00, 0.0,19.2
2024/02/18 14:00:00, 0.0,18.5
2024/02/18 14:10:00, 0.0,19.7
2024/02/18 14:20:00, 0.0,20.1
2024/02/18 14:30:00, 0.0,19.9
2024/02/18 14:40:00,---,20.0
2024/02/18 14:50:00,---,20.0
2024/02/18 15:00:00, 0.0,19.8
2024/02/18 15:10:00, 0.0,18.4
2024/02/18 15:20:00, 0.0,18.0
2024/02/18 15:30:00, 0.0,18.9
2024/02/18 15:40:00, 0.0,18.9
2024/02/18 15:50:00, 0.0,16.7
2024/02/18 16:00:00, 0.0,16.8
2024/02/18 16:10:00, 0.0,15.9
2024/02/18 16:20:00, 0.0,15.7
2024/02/18 16:30:00, 0.0,16.0
2024/02/18 16:40:00, 0.0,15.6
2024/02/18 16:50:00, 0.0,15.7
2024/02/18 17:00:00, 0.0,15.1
2024/02/18 17:10:00, 0.0,15.0
2024/02/18 17:20:00, 0.0,15.0
2024/02/18 17:30:00, 0.0,14.9
2024/02/18 17:40:00, 0.0,14.9
2024/02/18 17:50:00, 0.0,14.8
2024/02/18 18:00:00, 0.0,14.2
2024/02/18 18:10:00, 0.0,13.8
2024/02/18 18:20:00, 0.0,13.7
2024/02/18 18:30:00, 0.0,13.4
2024/02/18 18:40:00, 0.0,13.3
2024/02/18 18:50:00, 0.0,13.3
2024/02/18 19:00:00, 0.0,13.3
2024/02/18 19:10:00, 0.0,13.3
2024/02/18 19:20:00, 0.0,13.5
2024/02/18 19:30:00, 0.0,13.1
2024/02/18 19:40:00, 0.0,12.2
2024/02/18 19:50:00, 0.0,11.3
2024/02/18 20:00:00, 0.0,10.9
2024/02/18 20:10:00, 0.0,11.6
2024/02/18 20:20:00, 0.0,11.9
2024/02/18 20:30:00, 0.0,12.6
2024/02/18 20:40:00, 0.0,12.4
2024/02/18 20:50:00, 0.0,12.6
2024/02/18 21:00:00, 0.0,12.9
2024/02/18 21:10:00, 0.0,12.9
2024/02/18 21:20:00, 0.0,13.2
2024/02/18 21:30:00, 0.0,13.1
2024/02/18 21:40:00, 0.0,13.0
2024/02/18 21:50:00, 0.0,12.9
2024/02/18 22:00:00, 0.0,12.9
2024/02/18 22:10:00, 0.0,12.9
2024/02/18 22:20:00, 0.0,12.9
2024/02/18 22:30:00, 0.0,12.9
2024/02/18 22:40:00, 0.0,13.2
2024/02/18 22:50:00, 0.0,12.7
2024/02/18 23:00:00, 0.0,12.7
2024/02/18 23:10:00, 0.0,12.9
2024/02/18 23:20:00, 0.0,13.0
2024/02/18 23:30:00, 0.0,13.0
2024/02/18 23:40:00, 0.0,12.9
2024/02/18 23:50:00, 0.0,12.9
